Cloud_Cover
59 100 99 87 97 96 98 100 100 100 100 100 100 100 100 100 17 58 0 0 0 0 0 0 0 0 0 0 0 0 0 0
46 70 99 96 90 100 100 100 100 100 100 100 100 100 99 98 62 3 0 0 0 0 0 0 0 0 0 0 0 0 0 0
93 99 100 100 100 100 100 100 100 100 100 100 100 100 92 14 1 0 0 0 0 0 0 0 0 0 0 0 0 0 0 0
100 100 100 100 100 100 100 100 100 100 100 100 100 20 9 1 3 0 0 0 0 0 0 0 0 0 0 0 0 0 0 0
100 100 100 100 100 100 100 100 100 100 100 100 68 24 12 36 5 5 0 0 0 0 0 0 0 0 0 0 0 0 0 0
100 100 100 100 100 100 100 100 100 100 100 86 100 100 95 52 5 5 0 0 0 0 0 0 0 0 0 0 1 0 0 0
100 100 100 100 100 100 100 100 100 100 100 100 100 100 29 63 7 5 0 1 0 0 0 0 0 0 0 0 0 5 2 0
100 100 100 100 100 100 100 100 100 100 99 89 74 66 43 39 82 5 0 5 5 5 5 2 3 5 4 4 0 0 0 2
100 100 100 100 100 100 100 100 99 100 100 100 74 43 89 54 3 5 5 5 5 0 4 5 5 5 5 5 5 5 5 0
73 47 12 12 16 47 97 99 100 100 100 100 100 100 6 2 1 0 4 2 1 4 2 0 1 5 5 5 5 5 5 5
18 85 100 52 5 8 5 24 100 99 14 28 17 10 5 5 5 5 6 31 5 0 0 0 5 5 5 5 5 5 5 8
93 99 49 81 67 65 12 5 6 5 13 5 5 7 74 94 96 34 58 7 5 0 0 0 5 5 5 5 38 94 91 96
5 87 100 100 54 96 4 4 17 26 66 79 100 95 56 73 29 5 5 5 0 0 0 0 0 4 5 5 80 100 100 100
86 79 39 20 5 5 10 47 94 89 98 87 22 66 82 45 70 62 5 5 5 5 2 0 0 0 0 0 2 5 5 23
0 1 3 76 88 86 81 94 100 95 81 74 100 97 40 4 4 3 5 5 7 6 5 5 5 3 0 0 3 4 4 39
0 2 5 5 45 95 100 99 100 82 6 35 22 52 19 27 10 23 44 14 5 5 5 7 5 5 5 5 17 20 6 5
0 4 12 99 100 100 100 100 62 46 85 100 100 100 100 93 100 100 97 62 5 5 0 0 3 5 70 51 83 9 5 5
29 11 5 67 77 99 100 97 75 77 99 100 100 74 58 13 98 100 85 41 75 77 1 7 54 98 100 100 97 100 100 60
86 92 88 85 65 18 4 5 5 43 91 100 98 100 98 44 82 44 20 6 0 0 0 1 6 14 30 100 88 100 100 100
98 95 94 94 44 5 5 59 100 100 100 50 93 72 68 4 5 5 0 0 0 0 0 0 0 5 5 8 68 92 91 100